Time,TemperatureF,DewpointF,PressureIn,WindDirection,WindDirectionDegrees,WindSpeedMPH,WindSpeedGustMPH,Humidity,HourlyPrecipIn,Conditions,Clouds,dailyrainin,SoftwareType,DateUTC
2013-01-28 00:00:00,70.3,62.0,29.97,WSW,243,14.0,21.0,75,-0.07,,,0.00,Weather View 32 v70,2013-01-28 10:00:00,
2013-01-28 00:05:00,70.4,62.1,29.97,SW,214,18.0,21.0,75,-0.07,,,0.00,Weather View 32 v70,2013-01-28 10:05:00,
2013-01-28 00:10:00,70.4,62.4,29.97,South,187,9.0,21.0,76,-0.07,,,0.00,Weather View 32 v70,2013-01-28 10:10:00,
2013-01-28 00:15:00,70.3,62.3,29.98,SSW,193,7.0,21.0,76,-0.07,,,0.00,Weather View 32 v70,2013-01-28 10:15:00,
2013-01-28 00:21:00,70.3,62.0,29.97,WSW,254,4.0,21.0,75,-0.07,,,0.00,Weather View 32 v70,2013-01-28 10:21:00,
2013-01-28 00:26:00,70.3,61.6,29.97,SW,233,8.0,20.0,74,-0.07,,,0.00,Weather View 32 v70,2013-01-28 10:26:00,
2013-01-28 00:31:00,70.3,61.2,29.97,SSW,206,10.0,20.0,73,-0.07,,,0.00,Weather View 32 v70,2013-01-28 10:31:00,
2013-01-28 00:36:00,70.4,61.3,29.97,SSW,199,4.0,20.0,73,-0.07,,,0.00,Weather View 32 v70,2013-01-28 10:36:00,
2013-01-28 00:41:00,70.4,61.3,29.97,SSW,212,3.0,20.0,73,-0.07,,,0.00,Weather View 32 v70,2013-01-28 10:41:00,
2013-01-28 00:46:00,70.4,61.3,29.97,SSW,203,4.0,18.0,73,-0.07,,,0.00,Weather View 32 v70,2013-01-28 10:46:00,
2013-01-28 00:51:00,70.4,61.3,29.97,WSW,245,2.0,18.0,73,-0.07,,,0.00,Weather View 32 v70,2013-01-28 10:51:00,
2013-01-28 00:56:00,70.4,61.7,29.97,SW,226,4.0,18.0,74,-0.07,,,0.00,Weather View 32 v70,2013-01-28 10:56:00,
2013-01-28 01:01:00,70.3,61.6,29.97,SSW,213,6.0,18.0,74,0.00,,,0.00,Weather View 32 v70,2013-01-28 11:01:00,
2013-01-28 01:06:00,70.3,61.6,29.97,WSW,252,1.0,18.0,74,0.00,,,0.00,Weather View 32 v70,2013-01-28 11:06:00,
2013-01-28 01:11:00,70.4,61.7,29.97,SW,235,4.0,16.0,74,0.00,,,0.00,Weather View 32 v70,2013-01-28 11:11:00,
2013-01-28 01:16:00,70.4,61.7,29.97,West,278,3.0,16.0,74,0.00,,,0.00,Weather View 32 v70,2013-01-28 11:16:00,
2013-01-28 01:21:00,70.3,62.0,29.97,SSW,210,4.0,14.0,75,0.00,,,0.00,Weather View 32 v70,2013-01-28 11:21:00,
2013-01-28 01:26:00,70.3,62.0,29.97,SW,235,6.0,14.0,75,0.00,,,0.00,Weather View 32 v70,2013-01-28 11:26:00,
2013-01-28 01:31:00,70.2,62.3,29.97,SSW,203,4.0,14.0,76,0.00,,,0.00,Weather View 32 v70,2013-01-28 11:31:00,
2013-01-28 01:36:00,70.2,62.3,29.96,SSW,203,8.0,11.0,76,0.00,,,0.00,Weather View 32 v70,2013-01-28 11:36:00,
2013-01-28 01:41:00,70.3,62.3,29.97,SSW,208,5.0,11.0,76,0.00,,,0.00,Weather View 32 v70,2013-01-28 11:41:00,
2013-01-28 01:46:00,70.3,62.7,29.97,SW,221,4.0,11.0,77,0.00,,,0.00,Weather View 32 v70,2013-01-28 11:46:00,
2013-01-28 01:51:00,70.3,62.7,29.97,SW,222,3.0,11.0,77,0.00,,,0.00,Weather View 32 v70,2013-01-28 11:51:00,
2013-01-28 01:56:00,70.2,63.0,29.97,SW,216,2.0,11.0,78,0.00,,,0.00,Weather View 32 v70,2013-01-28 11:56:00,
2013-01-28 02:01:00,70.1,62.9,29.97,WSW,253,1.0,11.0,78,0.00,,,0.00,Weather View 32 v70,2013-01-28 12:01:00,
2013-01-28 02:06:00,69.9,62.3,29.96,West,263,2.0,11.0,77,0.00,,,0.00,Weather View 32 v70,2013-01-28 12:06:00,
2013-01-28 02:11:00,69.9,62.7,29.96,SSW,208,4.0,11.0,78,0.00,,,0.00,Weather View 32 v70,2013-01-28 12:11:00,
2013-01-28 02:16:00,69.9,62.3,29.96,WSW,258,3.0,11.0,77,0.00,,,0.00,Weather View 32 v70,2013-01-28 12:16:00,
2013-01-28 02:21:00,69.8,62.2,29.96,SW,222,3.0,11.0,77,0.00,,,0.00,Weather View 32 v70,2013-01-28 12:21:00,
2013-01-28 02:26:00,69.8,62.2,29.96,SSW,212,5.0,11.0,77,0.00,,,0.00,Weather View 32 v70,2013-01-28 12:26:00,
2013-01-28 02:31:00,69.9,62.0,29.95,WSW,253,2.0,11.0,76,0.00,,,0.00,Weather View 32 v70,2013-01-28 12:31:00,
2013-01-28 02:36:00,69.9,62.0,29.96,SSW,205,2.0,11.0,76,0.00,,,0.00,Weather View 32 v70,2013-01-28 12:36:00,
2013-01-28 02:41:00,69.9,62.3,29.95,SSW,211,7.0,9.0,77,0.00,,,0.00,Weather View 32 v70,2013-01-28 12:41:00,
2013-01-28 02:46:00,69.9,62.7,29.96,WSW,240,6.0,12.0,78,0.00,,,0.00,Weather View 32 v70,2013-01-28 12:46:00,
2013-01-28 02:51:00,69.9,63.1,29.95,SW,232,4.0,12.0,79,0.00,,,0.00,Weather View 32 v70,2013-01-28 12:51:00,
2013-01-28 02:56:00,69.9,63.1,29.95,SSW,212,8.0,12.0,79,0.00,,,0.00,Weather View 32 v70,2013-01-28 12:56:00,
2013-01-28 03:01:00,69.8,63.3,29.95,WSW,247,5.0,12.0,80,0.00,,,0.00,Weather View 32 v70,2013-01-28 13:01:00,
2013-01-28 03:06:00,69.8,63.3,29.95,WSW,256,3.0,12.0,80,0.00,,,0.00,Weather View 32 v70,2013-01-28 13:06:00,
2013-01-28 03:11:00,69.8,63.0,29.95,SW,222,9.0,12.0,79,0.00,,,0.00,Weather View 32 v70,2013-01-28 13:11:00,
2013-01-28 03:16:00,69.9,63.1,29.94,SW,230,5.0,14.0,79,0.00,,,0.00,Weather View 32 v70,2013-01-28 13:16:00,
2013-01-28 03:21:00,69.9,63.4,29.95,WSW,237,9.0,14.0,80,0.00,,,0.00,Weather View 32 v70,2013-01-28 13:21:00,
2013-01-28 03:26:00,69.9,63.4,29.95,North,0,3.0,14.0,80,0.00,,,0.00,Weather View 32 v70,2013-01-28 13:26:00,
2013-01-28 03:31:00,69.9,63.4,29.95,SSE,164,9.0,14.0,80,0.00,,,0.00,Weather View 32 v70,2013-01-28 13:31:00,
2013-01-28 03:36:00,69.5,63.0,29.95,NE,47,1.0,14.0,80,0.00,,,0.00,Weather View 32 v70,2013-01-28 13:36:00,
2013-01-28 03:41:00,68.7,63.0,29.94,NNE,25,6.0,14.0,82,0.00,,,0.00,Weather View 32 v70,2013-01-28 13:41:00,
2013-01-28 03:46:00,67.8,62.8,29.94,North,359,4.0,14.0,84,0.00,,,0.00,Weather View 32 v70,2013-01-28 13:46:00,
2013-01-28 03:51:00,67.5,62.8,29.94,NW,316,9.0,14.0,85,0.00,,,0.00,Weather View 32 v70,2013-01-28 13:51:00,
2013-01-28 03:56:00,67.5,62.8,29.94,North,349,6.0,14.0,85,0.00,,,0.00,Weather View 32 v70,2013-01-28 13:56:00,
2013-01-28 04:01:00,67.6,62.9,29.94,NNW,343,2.0,14.0,85,0.00,,,0.00,Weather View 32 v70,2013-01-28 14:01:00,
2013-01-28 04:06:00,67.7,63.0,29.95,NNW,337,2.0,14.0,85,0.00,,,0.00,Weather View 32 v70,2013-01-28 14:06:00,
2013-01-28 04:12:00,67.8,63.1,29.94,NNW,339,0.0,14.0,85,0.00,,,0.00,Weather View 32 v70,2013-01-28 14:12:00,
2013-01-28 04:17:00,67.9,62.9,29.94,NNW,337,0.0,14.0,84,0.00,,,0.00,Weather View 32 v70,2013-01-28 14:17:00,
2013-01-28 04:22:00,68.1,63.1,29.94,WSW,244,0.0,13.0,84,0.00,,,0.00,Weather View 32 v70,2013-01-28 14:22:00,
2013-01-28 04:27:00,68.1,63.1,29.94,West,268,0.0,13.0,84,0.00,,,0.00,Weather View 32 v70,2013-01-28 14:27:00,
2013-01-28 04:32:00,68.3,63.3,29.94,SW,214,2.0,11.0,84,0.00,,,0.00,Weather View 32 v70,2013-01-28 14:32:00,
2013-01-28 04:37:00,68.3,62.9,29.94,NE,53,2.0,11.0,83,0.00,,,0.00,Weather View 32 v70,2013-01-28 14:37:00,
2013-01-28 04:42:00,68.2,62.8,29.94,NE,53,0.0,11.0,83,0.00,,,0.00,Weather View 32 v70,2013-01-28 14:42:00,
2013-01-28 04:47:00,68.1,62.7,29.94,North,11,3.0,11.0,83,0.00,,,0.00,Weather View 32 v70,2013-01-28 14:47:00,
2013-01-28 04:52:00,68.1,62.4,29.94,NNE,15,4.0,11.0,82,0.00,,,0.00,Weather View 32 v70,2013-01-28 14:52:00,
2013-01-28 04:57:00,68.0,62.3,29.94,North,357,1.0,8.0,82,0.00,,,0.00,Weather View 32 v70,2013-01-28 14:57:00,
2013-01-28 05:02:00,67.9,62.2,29.94,North,357,0.0,7.0,82,0.00,,,0.00,Weather View 32 v70,2013-01-28 15:02:00,
2013-01-28 05:07:00,67.8,62.4,29.94,North,355,2.0,7.0,83,0.01,,,0.01,Weather View 32 v70,2013-01-28 15:07:00,
2013-01-28 05:12:00,67.6,62.2,29.94,South,181,0.0,7.0,83,0.01,,,0.01,Weather View 32 v70,2013-01-28 15:12:00,
2013-01-28 05:17:00,67.4,62.4,29.94,South,180,0.0,7.0,84,0.01,,,0.01,Weather View 32 v70,2013-01-28 15:17:00,
2013-01-28 05:22:00,67.3,62.3,29.94,NW,316,3.0,7.0,84,0.01,,,0.01,Weather View 32 v70,2013-01-28 15:22:00,
2013-01-28 05:27:00,67.2,62.5,29.95,WNW,302,4.0,7.0,85,0.01,,,0.01,Weather View 32 v70,2013-01-28 15:27:00,
2013-01-28 05:32:00,67.2,62.5,29.94,WNW,301,5.0,7.0,85,0.01,,,0.01,Weather View 32 v70,2013-01-28 15:32:00,
2013-01-28 05:37:00,67.2,62.5,29.95,NNW,338,3.0,7.0,85,0.01,,,0.01,Weather View 32 v70,2013-01-28 15:37:00,
2013-01-28 05:42:00,67.2,62.5,29.94,NNW,338,4.0,7.0,85,0.01,,,0.01,Weather View 32 v70,2013-01-28 15:42:00,
2013-01-28 05:47:00,67.2,62.2,29.95,NNW,330,0.0,7.0,84,0.01,,,0.01,Weather View 32 v70,2013-01-28 15:47:00,
2013-01-28 05:52:00,67.2,62.2,29.95,NNW,328,0.0,6.0,84,0.01,,,0.01,Weather View 32 v70,2013-01-28 15:52:00,
2013-01-28 05:57:00,67.2,62.5,29.95,WSW,247,2.0,6.0,85,0.02,,,0.02,Weather View 32 v70,2013-01-28 15:57:00,
2013-01-28 06:02:00,67.1,62.4,29.96,SW,218,0.0,6.0,85,0.02,,,0.02,Weather View 32 v70,2013-01-28 16:02:00,
2013-01-28 06:07:00,67.1,62.4,29.96,SW,220,0.0,6.0,85,0.02,,,0.03,Weather View 32 v70,2013-01-28 16:07:00,
2013-01-28 06:12:00,67.0,62.7,29.96,North,349,5.0,6.0,86,0.03,,,0.04,Weather View 32 v70,2013-01-28 16:12:00,
2013-01-28 06:17:00,66.5,62.2,29.96,NNW,343,5.0,6.0,86,0.05,,,0.06,Weather View 32 v70,2013-01-28 16:17:00,
2013-01-28 06:22:00,66.3,62.0,29.96,North,349,3.0,6.0,86,0.05,,,0.06,Weather View 32 v70,2013-01-28 16:22:00,
2013-01-28 06:27:00,66.3,62.3,29.96,NW,326,4.0,6.0,87,0.05,,,0.06,Weather View 32 v70,2013-01-28 16:27:00,
2013-01-28 06:32:00,66.3,62.0,29.97,NW,309,5.0,6.0,86,0.05,,,0.06,Weather View 32 v70,2013-01-28 16:32:00,
2013-01-28 06:37:00,66.2,62.2,29.97,NW,310,4.0,6.0,87,0.05,,,0.06,Weather View 32 v70,2013-01-28 16:37:00,
2013-01-28 06:43:00,66.3,62.3,29.97,North,349,5.0,6.0,87,0.05,,,0.06,Weather View 32 v70,2013-01-28 16:43:00,
2013-01-28 06:48:00,66.5,62.2,29.97,NNW,332,4.0,6.0,86,0.05,,,0.06,Weather View 32 v70,2013-01-28 16:48:00,
2013-01-28 06:53:00,66.8,62.5,29.97,NNW,337,5.0,9.0,86,0.05,,,0.06,Weather View 32 v70,2013-01-28 16:53:00,
2013-01-28 06:58:00,67.0,62.3,29.97,NNW,337,7.0,9.0,85,0.04,,,0.06,Weather View 32 v70,2013-01-28 16:58:00,
2013-01-28 07:03:00,67.1,62.8,29.97,North,2,7.0,9.0,86,0.04,,,0.06,Weather View 32 v70,2013-01-28 17:03:00,
2013-01-28 07:08:00,67.0,62.7,29.97,NNW,338,5.0,9.0,86,0.03,,,0.06,Weather View 32 v70,2013-01-28 17:08:00,
2013-01-28 07:13:00,67.0,62.7,29.98,North,350,3.0,9.0,86,0.02,,,0.06,Weather View 32 v70,2013-01-28 17:13:00,
2013-01-28 07:18:00,67.1,62.8,29.98,NNW,343,4.0,9.0,86,0.00,,,0.06,Weather View 32 v70,2013-01-28 17:18:00,
2013-01-28 07:23:00,67.2,62.9,29.98,NNW,332,3.0,9.0,86,0.00,,,0.06,Weather View 32 v70,2013-01-28 17:23:00,
2013-01-28 07:28:00,67.1,62.8,29.98,NNW,328,1.0,9.0,86,0.00,,,0.06,Weather View 32 v70,2013-01-28 17:28:00,
2013-01-28 07:33:00,67.2,62.5,29.99,NNW,330,1.0,9.0,85,0.00,,,0.06,Weather View 32 v70,2013-01-28 17:33:00,
2013-01-28 07:38:00,67.2,62.5,29.99,North,7,4.0,9.0,85,0.00,,,0.06,Weather View 32 v70,2013-01-28 17:38:00,
2013-01-28 07:43:00,67.4,62.7,29.99,NNW,330,5.0,9.0,85,0.00,,,0.06,Weather View 32 v70,2013-01-28 17:43:00,
2013-01-28 07:48:00,67.4,62.7,29.99,North,1,3.0,9.0,85,0.00,,,0.06,Weather View 32 v70,2013-01-28 17:48:00,
2013-01-28 07:53:00,67.2,62.5,29.99,North,1,4.0,9.0,85,0.00,,,0.06,Weather View 32 v70,2013-01-28 17:53:00,
2013-01-28 07:58:00,67.3,62.6,29.99,NNW,333,2.0,9.0,85,0.00,,,0.06,Weather View 32 v70,2013-01-28 17:58:00,
2013-01-28 08:03:00,67.5,62.5,29.99,NNE,14,8.0,8.0,84,0.00,,,0.06,Weather View 32 v70,2013-01-28 18:03:00,
2013-01-28 08:08:00,67.6,62.9,29.99,North,355,7.0,8.0,85,0.00,,,0.06,Weather View 32 v70,2013-01-28 18:08:00,
2013-01-28 08:13:00,67.4,62.7,30.00,North,4,6.0,9.0,85,0.00,,,0.06,Weather View 32 v70,2013-01-28 18:13:00,
2013-01-28 08:18:00,67.2,62.9,29.99,North,359,5.0,9.0,86,0.00,,,0.06,Weather View 32 v70,2013-01-28 18:18:00,
2013-01-28 08:23:00,67.2,63.2,30.00,North,355,6.0,10.0,87,0.00,,,0.06,Weather View 32 v70,2013-01-28 18:23:00,
2013-01-28 08:28:00,67.2,63.2,30.00,NNW,341,5.0,10.0,87,0.00,,,0.06,Weather View 32 v70,2013-01-28 18:28:00,
2013-01-28 08:33:00,67.2,63.2,30.00,North,359,5.0,10.0,87,0.00,,,0.06,Weather View 32 v70,2013-01-28 18:33:00,
2013-01-28 08:38:00,67.2,63.5,30.00,NNE,25,7.0,10.0,88,0.00,,,0.06,Weather View 32 v70,2013-01-28 18:38:00,
2013-01-28 08:43:00,67.0,64.0,30.00,NNE,12,9.0,10.0,90,0.00,,,0.06,Weather View 32 v70,2013-01-28 18:43:00,
2013-01-28 08:48:00,66.9,64.2,30.00,NNE,12,11.0,14.0,91,0.00,,,0.06,Weather View 32 v70,2013-01-28 18:48:00,
2013-01-28 08:53:00,66.8,64.4,30.00,NNE,24,10.0,14.0,92,0.00,,,0.06,Weather View 32 v70,2013-01-28 18:53:00,
2013-01-28 08:58:00,66.6,64.2,30.00,North,358,8.0,14.0,92,0.00,,,0.06,Weather View 32 v70,2013-01-28 18:58:00,
2013-01-28 09:00:00,66.5,64.1,30.01,NNE,33,10.0,14.0,92,0.00,,,0.06,Weather View 32 v70,2013-01-28 19:00:00,
2013-01-28 09:04:00,66.4,64.0,30.01,North,2,12.0,14.0,92,0.00,,,0.06,Weather View 32 v70,2013-01-28 19:04:00,
2013-01-28 09:09:00,66.5,64.4,30.01,North,2,8.0,14.0,93,0.00,,,0.06,Weather View 32 v70,2013-01-28 19:09:00,
2013-01-28 09:10:00,66.5,64.4,30.01,NNE,12,7.0,14.0,93,0.00,,,0.06,Weather View 32 v70,2013-01-28 19:10:00,
2013-01-28 09:15:00,66.4,64.3,30.00,North,9,10.0,14.0,93,0.00,,,0.06,Weather View 32 v70,2013-01-28 19:15:00,
2013-01-28 09:20:00,66.3,64.2,30.01,North,351,12.0,14.0,93,0.00,,,0.06,Weather View 32 v70,2013-01-28 19:20:00,
2013-01-28 09:26:00,66.0,64.2,30.01,North,4,12.0,14.0,94,0.00,,,0.06,Weather View 32 v70,2013-01-28 19:26:00,
2013-01-28 09:31:00,66.1,64.3,30.01,North,8,11.0,14.0,94,0.00,,,0.06,Weather View 32 v70,2013-01-28 19:31:00,
2013-01-28 09:36:00,66.2,64.4,30.01,NNE,13,7.0,14.0,94,0.00,,,0.06,Weather View 32 v70,2013-01-28 19:36:00,
2013-01-28 09:40:00,66.4,64.3,30.01,NNW,343,8.0,14.0,93,0.00,,,0.06,Weather View 32 v70,2013-01-28 19:40:00,
2013-01-28 09:41:00,66.4,64.3,30.01,North,1,11.0,14.0,93,0.00,,,0.06,Weather View 32 v70,2013-01-28 19:41:00,
2013-01-28 09:45:00,66.1,64.0,30.01,NNE,24,15.0,15.0,93,0.00,,,0.06,Weather View 32 v70,2013-01-28 19:45:00,
2013-01-28 09:48:00,66.1,64.0,30.01,North,359,13.0,15.0,93,0.00,,,0.06,Weather View 32 v70,2013-01-28 19:48:00,
2013-01-28 09:55:00,66.5,63.8,30.01,NNE,22,6.0,16.0,91,0.00,,,0.06,Weather View 32 v70,2013-01-28 19:55:00,
2013-01-28 10:00:00,66.8,63.8,30.01,NNW,339,10.0,16.0,90,0.00,,,0.06,Weather View 32 v70,2013-01-28 20:00:00,
2013-01-28 10:01:00,66.8,63.8,30.01,NNW,335,9.0,16.0,90,0.00,,,0.06,Weather View 32 v70,2013-01-28 20:01:00,
2013-01-28 10:06:00,67.1,63.7,30.01,NNW,345,13.0,16.0,89,0.00,,,0.06,Weather View 32 v70,2013-01-28 20:06:00,
2013-01-28 10:12:00,67.6,64.2,30.01,NNE,12,7.0,16.0,89,0.00,,,0.06,Weather View 32 v70,2013-01-28 20:12:00,
2013-01-28 10:15:00,67.6,63.9,30.01,NNE,15,7.0,16.0,88,0.00,,,0.06,Weather View 32 v70,2013-01-28 20:15:00,
2013-01-28 10:17:00,67.8,64.1,30.01,North,8,9.0,16.0,88,0.00,,,0.06,Weather View 32 v70,2013-01-28 20:17:00,
2013-01-28 10:23:00,68.0,64.0,30.01,North,355,6.0,16.0,87,0.00,,,0.06,Weather View 32 v70,2013-01-28 20:23:00,
2013-01-28 10:30:00,68.3,63.9,30.01,NNE,25,6.0,16.0,86,0.00,,,0.06,Weather View 32 v70,2013-01-28 20:30:00,
2013-01-28 10:35:00,68.5,64.1,30.01,North,355,9.0,16.0,86,0.00,,,0.06,Weather View 32 v70,2013-01-28 20:35:00,
2013-01-28 10:42:00,68.4,63.7,30.01,NNE,12,8.0,16.0,85,0.00,,,0.06,Weather View 32 v70,2013-01-28 20:42:00,
2013-01-28 10:47:00,68.5,63.8,30.00,NNE,29,6.0,16.0,85,0.00,,,0.06,Weather View 32 v70,2013-01-28 20:47:00,
2013-01-28 10:52:00,68.7,64.0,30.00,NNE,25,7.0,13.0,85,0.00,,,0.06,Weather View 32 v70,2013-01-28 20:52:00,
2013-01-28 10:58:00,68.6,63.2,30.00,NNE,16,6.0,13.0,83,-0.06,,,0.06,Weather View 32 v70,2013-01-28 20:58:00,
2013-01-28 11:00:00,68.6,63.2,30.00,North,2,5.0,13.0,83,0.00,,,0.06,Weather View 32 v70,2013-01-28 21:00:00,
2013-01-28 11:03:00,68.8,63.8,30.00,NNW,347,8.0,13.0,84,0.00,,,0.06,Weather View 32 v70,2013-01-28 21:03:00,
2013-01-28 11:05:00,69.0,63.6,29.99,NNE,12,8.0,13.0,83,0.00,,,0.06,Weather View 32 v70,2013-01-28 21:05:00,
2013-01-28 11:09:00,69.2,62.4,29.99,North,353,12.0,15.0,79,0.00,,,0.06,Weather View 32 v70,2013-01-28 21:09:00,
2013-01-28 11:15:00,69.5,62.3,29.99,North,4,10.0,15.0,78,0.00,,,0.06,Weather View 32 v70,2013-01-28 21:15:00,
2013-01-28 11:20:00,69.8,62.2,29.99,NNE,18,10.0,15.0,77,0.00,,,0.06,Weather View 32 v70,2013-01-28 21:20:00,
2013-01-28 11:26:00,69.8,62.2,29.98,NNE,24,11.0,15.0,77,0.00,,,0.06,Weather View 32 v70,2013-01-28 21:26:00,
2013-01-28 11:32:00,69.9,62.3,29.98,North,10,8.0,15.0,77,0.00,,,0.06,Weather View 32 v70,2013-01-28 21:32:00,
2013-01-28 11:35:00,70.2,62.3,29.98,NNE,14,10.0,15.0,76,0.00,,,0.06,Weather View 32 v70,2013-01-28 21:35:00,
2013-01-28 11:38:00,70.5,61.8,29.98,NNE,31,11.0,15.0,74,0.00,,,0.06,Weather View 32 v70,2013-01-28 21:38:00,
2013-01-28 11:40:00,70.6,62.3,29.97,NNE,27,9.0,15.0,75,0.00,,,0.06,Weather View 32 v70,2013-01-28 21:40:00,
2013-01-28 11:44:00,70.6,62.6,29.97,NE,56,10.0,15.0,76,0.00,,,0.06,Weather View 32 v70,2013-01-28 21:44:00,
2013-01-28 11:45:00,70.6,62.6,29.97,NE,45,12.0,15.0,76,0.00,,,0.06,Weather View 32 v70,2013-01-28 21:45:00,
2013-01-28 11:49:00,70.6,63.0,29.97,NNE,22,9.0,15.0,77,0.00,,,0.06,Weather View 32 v70,2013-01-28 21:49:00,
2013-01-28 11:50:00,70.5,62.9,29.97,NNE,23,9.0,15.0,77,0.00,,,0.06,Weather View 32 v70,2013-01-28 21:50:00,
2013-01-28 12:00:00,70.5,62.5,29.98,NE,41,9.0,15.0,76,0.00,,,0.06,Weather View 32 v70,2013-01-28 22:00:00,
2013-01-28 12:10:00,70.8,62.8,29.97,NNE,17,10.0,15.0,76,0.00,,,0.06,Weather View 32 v70,2013-01-28 22:10:00,
2013-01-28 12:15:00,70.6,63.0,29.96,NNE,23,10.0,16.0,77,0.00,,,0.06,Weather View 32 v70,2013-01-28 22:15:00,
2013-01-28 12:21:00,70.6,63.4,29.96,NNE,25,11.0,16.0,78,0.00,,,0.06,Weather View 32 v70,2013-01-28 22:21:00,
2013-01-28 12:26:00,70.4,63.6,29.95,NNE,27,9.0,16.0,79,0.00,,,0.06,Weather View 32 v70,2013-01-28 22:26:00,
2013-01-28 12:31:00,70.3,63.8,29.95,NNE,16,6.0,16.0,80,0.00,,,0.06,Weather View 32 v70,2013-01-28 22:31:00,
2013-01-28 12:37:00,70.3,63.8,29.96,North,8,6.0,16.0,80,0.00,,,0.06,Weather View 32 v70,2013-01-28 22:37:00,
2013-01-28 12:40:00,70.3,64.2,29.96,North,6,11.0,16.0,81,0.00,,,0.06,Weather View 32 v70,2013-01-28 22:40:00,
2013-01-28 12:43:00,70.1,63.6,29.95,North,357,9.0,16.0,80,0.00,,,0.06,Weather View 32 v70,2013-01-28 22:43:00,
2013-01-28 12:48:00,69.9,64.1,29.95,NNE,12,6.0,16.0,82,0.00,,,0.06,Weather View 32 v70,2013-01-28 22:48:00,
2013-01-28 12:53:00,69.8,64.4,29.95,NNE,14,8.0,16.0,83,0.00,,,0.06,Weather View 32 v70,2013-01-28 22:53:00,
2013-01-28 12:55:00,69.9,64.8,29.94,North,8,9.0,16.0,84,0.00,,,0.06,Weather View 32 v70,2013-01-28 22:55:00,
2013-01-28 12:59:00,69.7,64.6,29.95,NNE,21,11.0,16.0,84,0.00,,,0.06,Weather View 32 v70,2013-01-28 22:59:00,
2013-01-28 13:04:00,69.5,64.4,29.94,NNE,33,8.0,16.0,84,0.00,,,0.06,Weather View 32 v70,2013-01-28 23:04:00,
2013-01-28 13:05:00,69.5,64.8,29.94,NNE,29,8.0,16.0,85,0.00,,,0.06,Weather View 32 v70,2013-01-28 23:05:00,
2013-01-28 13:10:00,69.5,65.1,29.94,NNE,26,11.0,16.0,86,0.00,,,0.06,Weather View 32 v70,2013-01-28 23:10:00,
2013-01-28 13:16:00,69.2,64.8,29.94,NNE,25,8.0,16.0,86,0.00,,,0.06,Weather View 32 v70,2013-01-28 23:16:00,
2013-01-28 13:20:00,69.2,64.8,29.93,NNE,18,7.0,14.0,86,0.00,,,0.06,Weather View 32 v70,2013-01-28 23:20:00,
2013-01-28 13:22:00,69.2,64.8,29.93,NNE,16,9.0,14.0,86,0.00,,,0.06,Weather View 32 v70,2013-01-28 23:22:00,
2013-01-28 13:27:00,69.4,64.7,29.93,NNE,30,8.0,14.0,85,0.00,,,0.06,Weather View 32 v70,2013-01-28 23:27:00,
2013-01-28 13:33:00,69.8,64.7,29.93,NNE,26,3.0,13.0,84,0.00,,,0.06,Weather View 32 v70,2013-01-28 23:33:00,
2013-01-28 13:38:00,70.2,64.8,29.92,NNE,30,9.0,13.0,83,0.00,,,0.06,Weather View 32 v70,2013-01-28 23:38:00,
2013-01-28 13:45:00,70.0,64.6,29.92,NNE,29,8.0,13.0,83,0.00,,,0.06,Weather View 32 v70,2013-01-28 23:45:00,
2013-01-28 13:51:00,70.3,64.9,29.92,NE,55,11.0,13.0,83,0.00,,,0.06,Weather View 32 v70,2013-01-28 23:51:00,
2013-01-28 13:58:00,70.1,64.3,29.91,NNE,18,7.0,13.0,82,0.00,,,0.06,Weather View 32 v70,2013-01-28 23:58:00,
2013-01-28 14:03:00,70.2,64.4,29.91,NNE,22,7.0,13.0,82,0.00,,,0.06,Weather View 32 v70,2013-01-29 00:03:00,
2013-01-28 14:08:00,70.2,64.4,29.91,NE,41,7.0,13.0,82,0.00,,,0.06,Weather View 32 v70,2013-01-29 00:08:00,
2013-01-28 14:13:00,70.4,64.6,29.91,NE,56,7.0,12.0,82,0.00,,,0.06,Weather View 32 v70,2013-01-29 00:13:00,
2013-01-28 14:15:00,70.6,64.8,29.91,NNE,27,9.0,12.0,82,0.00,,,0.06,Weather View 32 v70,2013-01-29 00:15:00,
2013-01-28 14:19:00,70.7,64.9,29.91,North,8,6.0,12.0,82,0.00,,,0.06,Weather View 32 v70,2013-01-29 00:19:00,
2013-01-28 14:31:00,70.6,64.5,29.91,East,85,4.0,12.0,81,0.00,,,0.06,Weather View 32 v70,2013-01-29 00:31:00,
2013-01-28 14:35:00,71.1,64.9,29.91,East,89,6.0,12.0,81,0.00,,,0.06,Weather View 32 v70,2013-01-29 00:35:00,
2013-01-28 14:37:00,71.3,65.1,29.91,NE,45,5.0,12.0,81,0.00,,,0.06,Weather View 32 v70,2013-01-29 00:37:00,
2013-01-28 14:40:00,71.2,65.0,29.91,ENE,66,4.0,12.0,81,0.00,,,0.06,Weather View 32 v70,2013-01-29 00:40:00,
2013-01-28 14:42:00,71.1,64.6,29.91,NE,44,5.0,11.0,80,0.00,,,0.06,Weather View 32 v70,2013-01-29 00:42:00,
2013-01-28 14:45:00,70.9,64.4,29.91,NNE,15,2.0,11.0,80,0.00,,,0.06,Weather View 32 v70,2013-01-29 00:45:00,
2013-01-28 14:49:00,70.8,64.7,29.91,ENE,61,4.0,11.0,81,0.00,,,0.06,Weather View 32 v70,2013-01-29 00:49:00,
2013-01-28 14:50:00,70.9,64.8,29.91,ENE,67,4.0,11.0,81,0.00,,,0.06,Weather View 32 v70,2013-01-29 00:50:00,
2013-01-28 15:00:00,70.9,64.8,29.91,NE,49,1.0,11.0,81,0.00,,,0.06,Weather View 32 v70,2013-01-29 01:00:00,
2013-01-28 15:10:00,71.4,65.2,29.91,NNE,31,5.0,10.0,81,0.00,,,0.06,Weather View 32 v70,2013-01-29 01:10:00,
2013-01-28 15:16:00,70.6,64.8,29.90,NNE,31,2.0,10.0,82,0.00,,,0.06,Weather View 32 v70,2013-01-29 01:16:00,
2013-01-28 15:23:00,70.4,64.6,29.90,NNE,33,2.0,8.0,82,-0.06,,,0.06,Weather View 32 v70,2013-01-29 01:23:00,
2013-01-28 15:29:00,70.5,65.1,29.90,East,100,1.0,7.0,83,0.00,,,0.06,Weather View 32 v70,2013-01-29 01:29:00,
2013-01-28 15:34:00,70.9,65.5,29.91,East,98,3.0,7.0,83,0.00,,,0.06,Weather View 32 v70,2013-01-29 01:34:00,
2013-01-28 15:39:00,71.2,65.0,29.91,ESE,119,4.0,7.0,81,0.00,,,0.06,Weather View 32 v70,2013-01-29 01:39:00,
2013-01-28 15:40:00,71.2,65.0,29.91,ESE,114,5.0,7.0,81,0.00,,,0.06,Weather View 32 v70,2013-01-29 01:40:00,
2013-01-28 15:45:00,71.1,64.9,29.91,ESE,119,3.0,6.0,81,0.00,,,0.06,Weather View 32 v70,2013-01-29 01:45:00,
2013-01-28 15:50:00,70.8,64.7,29.91,SSE,151,1.0,6.0,81,0.00,,,0.06,Weather View 32 v70,2013-01-29 01:50:00,
2013-01-28 15:56:00,70.8,65.0,29.91,SE,125,5.0,6.0,82,0.00,,,0.06,Weather View 32 v70,2013-01-29 01:56:00,
2013-01-28 16:02:00,70.6,65.2,29.91,SE,124,3.0,6.0,83,0.00,,,0.06,Weather View 32 v70,2013-01-29 02:02:00,
2013-01-28 16:07:00,70.5,65.1,29.92,ESE,109,2.0,6.0,83,0.00,,,0.06,Weather View 32 v70,2013-01-29 02:07:00,
2013-01-28 16:15:00,70.4,65.0,29.92,SSE,154,3.0,6.0,83,0.00,,,0.06,Weather View 32 v70,2013-01-29 02:15:00,
2013-01-28 16:20:00,70.3,65.2,29.92,East,95,2.0,6.0,84,0.00,,,0.06,Weather View 32 v70,2013-01-29 02:20:00,
2013-01-28 16:26:00,70.3,65.2,29.92,ESE,116,2.0,6.0,84,0.00,,,0.06,Weather View 32 v70,2013-01-29 02:26:00,
2013-01-28 16:31:00,70.1,65.0,29.92,SE,132,2.0,6.0,84,0.00,,,0.06,Weather View 32 v70,2013-01-29 02:31:00,
2013-01-28 16:35:00,70.1,65.0,29.92,ESE,122,3.0,6.0,84,0.00,,,0.06,Weather View 32 v70,2013-01-29 02:35:00,
2013-01-28 16:37:00,70.1,65.0,29.92,SE,136,3.0,6.0,84,0.00,,,0.06,Weather View 32 v70,2013-01-29 02:37:00,
2013-01-28 16:40:00,70.0,64.9,29.92,SE,133,0.0,6.0,84,0.00,,,0.06,Weather View 32 v70,2013-01-29 02:40:00,
2013-01-28 16:45:00,69.8,64.7,29.93,South,180,0.0,6.0,84,0.00,,,0.06,Weather View 32 v70,2013-01-29 02:45:00,
2013-01-28 16:51:00,69.8,65.1,29.93,SSE,162,1.0,6.0,85,0.01,,,0.07,Weather View 32 v70,2013-01-29 02:51:00,
2013-01-28 16:56:00,69.7,65.0,29.93,SSE,160,2.0,6.0,85,0.01,,,0.07,Weather View 32 v70,2013-01-29 02:56:00,
2013-01-28 17:01:00,69.6,65.2,29.93,SSE,162,2.0,5.0,86,0.01,,,0.07,Weather View 32 v70,2013-01-29 03:01:00,
2013-01-28 17:06:00,69.5,65.1,29.93,SSE,162,2.0,5.0,86,0.01,,,0.07,Weather View 32 v70,2013-01-29 03:06:00,
2013-01-28 17:11:00,69.5,65.1,29.93,SE,144,3.0,5.0,86,0.01,,,0.07,Weather View 32 v70,2013-01-29 03:11:00,
2013-01-28 17:16:00,69.4,65.3,29.93,South,176,2.0,5.0,87,0.01,,,0.07,Weather View 32 v70,2013-01-29 03:16:00,
2013-01-28 17:21:00,69.3,65.2,29.93,South,176,2.0,5.0,87,0.01,,,0.07,Weather View 32 v70,2013-01-29 03:21:00,
2013-01-28 17:26:00,69.3,65.2,29.93,South,174,3.0,5.0,87,0.01,,,0.07,Weather View 32 v70,2013-01-29 03:26:00,
2013-01-28 17:31:00,69.3,65.2,29.93,South,178,5.0,7.0,87,0.01,,,0.07,Weather View 32 v70,2013-01-29 03:31:00,
2013-01-28 17:36:00,69.3,65.2,29.93,South,181,2.0,7.0,87,0.01,,,0.07,Weather View 32 v70,2013-01-29 03:36:00,
2013-01-28 17:41:00,69.3,65.2,29.93,SSW,192,2.0,7.0,87,0.01,,,0.07,Weather View 32 v70,2013-01-29 03:41:00,
2013-01-28 17:46:00,69.0,64.3,29.94,SSW,208,2.0,8.0,85,0.00,,,0.07,Weather View 32 v70,2013-01-29 03:46:00,
2013-01-28 17:51:00,69.2,63.5,29.94,SSW,207,6.0,9.0,82,0.00,,,0.07,Weather View 32 v70,2013-01-29 03:51:00,
2013-01-28 17:56:00,69.7,63.2,29.94,SW,220,3.0,10.0,80,0.00,,,0.07,Weather View 32 v70,2013-01-29 03:56:00,
2013-01-28 18:01:00,69.9,63.1,29.94,SW,226,4.0,10.0,79,0.00,,,0.07,Weather View 32 v70,2013-01-29 04:01:00,
2013-01-28 18:06:00,69.9,62.7,29.94,SW,226,2.0,10.0,78,0.00,,,0.07,Weather View 32 v70,2013-01-29 04:06:00,
2013-01-28 18:11:00,69.9,62.7,29.94,WNW,285,3.0,10.0,78,0.00,,,0.07,Weather View 32 v70,2013-01-29 04:11:00,
2013-01-28 18:16:00,70.0,62.4,29.95,SSW,213,4.0,10.0,77,0.00,,,0.07,Weather View 32 v70,2013-01-29 04:16:00,
2013-01-28 18:21:00,70.0,62.4,29.95,WSW,253,6.0,10.0,77,0.00,,,0.07,Weather View 32 v70,2013-01-29 04:21:00,
2013-01-28 18:26:00,70.1,62.5,29.95,SSW,197,9.0,10.0,77,0.00,,,0.07,Weather View 32 v70,2013-01-29 04:26:00,
2013-01-28 18:31:00,70.1,62.5,29.94,SSW,202,7.0,12.0,77,0.00,,,0.07,Weather View 32 v70,2013-01-29 04:31:00,
2013-01-28 18:36:00,70.0,62.1,29.94,WSW,243,8.0,12.0,76,0.00,,,0.07,Weather View 32 v70,2013-01-29 04:36:00,
2013-01-28 18:41:00,70.0,61.7,29.95,SW,221,13.0,14.0,75,0.00,,,0.07,Weather View 32 v70,2013-01-29 04:41:00,
2013-01-28 18:46:00,70.1,61.8,29.95,SSW,207,11.0,16.0,75,0.00,,,0.07,Weather View 32 v70,2013-01-29 04:46:00,
2013-01-28 18:51:00,70.2,62.6,29.95,SW,218,14.0,16.0,77,0.00,,,0.07,Weather View 32 v70,2013-01-29 04:51:00,
2013-01-28 18:56:00,70.1,62.9,29.95,SW,218,11.0,19.0,78,0.00,,,0.07,Weather View 32 v70,2013-01-29 04:56:00,
2013-01-28 19:00:00,70.0,63.2,29.94,SW,220,12.0,19.0,79,0.00,,,0.07,Weather View 32 v70,2013-01-29 05:00:00,
2013-01-28 19:03:00,70.0,63.2,29.95,WSW,239,7.0,19.0,79,0.00,,,0.07,Weather View 32 v70,2013-01-29 05:03:00,
2013-01-28 19:04:00,70.0,63.2,29.95,SW,232,10.0,19.0,79,0.00,,,0.07,Weather View 32 v70,2013-01-29 05:04:00,
2013-01-28 19:09:00,70.0,62.8,29.95,SSW,208,9.0,19.0,78,0.00,,,0.07,Weather View 32 v70,2013-01-29 05:09:00,
2013-01-28 19:14:00,70.2,61.9,29.95,West,266,7.0,19.0,75,0.00,,,0.07,Weather View 32 v70,2013-01-29 05:14:00,
2013-01-28 19:19:00,70.2,61.1,29.95,WSW,256,9.0,19.0,73,0.00,,,0.07,Weather View 32 v70,2013-01-29 05:19:00,
2013-01-28 19:24:00,70.2,60.7,29.95,SW,226,7.0,19.0,72,0.00,,,0.07,Weather View 32 v70,2013-01-29 05:24:00,
2013-01-28 19:29:00,70.2,60.7,29.95,WSW,251,13.0,19.0,72,0.00,,,0.07,Weather View 32 v70,2013-01-29 05:29:00,
2013-01-28 19:34:00,70.2,61.5,29.96,West,260,11.0,19.0,74,0.00,,,0.07,Weather View 32 v70,2013-01-29 05:34:00,
2013-01-28 19:39:00,70.4,59.7,29.96,West,270,8.0,21.0,69,0.00,,,0.07,Weather View 32 v70,2013-01-29 05:39:00,
2013-01-28 19:44:00,70.7,59.2,29.96,WNW,282,8.0,21.0,67,0.00,,,0.07,Weather View 32 v70,2013-01-29 05:44:00,
2013-01-28 19:49:00,71.0,59.5,29.96,WSW,250,9.0,21.0,67,0.00,,,0.07,Weather View 32 v70,2013-01-29 05:49:00,
2013-01-28 19:54:00,71.2,59.2,29.96,NNW,334,7.0,21.0,66,0.00,,,0.07,Weather View 32 v70,2013-01-29 05:54:00,
2013-01-28 19:59:00,71.1,59.1,29.96,WSW,249,10.0,21.0,66,0.00,,,0.07,Weather View 32 v70,2013-01-29 05:59:00,
2013-01-28 20:04:00,71.3,58.0,29.96,NW,314,11.0,21.0,63,0.00,,,0.07,Weather View 32 v70,2013-01-29 06:04:00,
2013-01-28 20:09:00,71.4,59.0,29.97,West,271,7.0,21.0,65,0.00,,,0.07,Weather View 32 v70,2013-01-29 06:09:00,
2013-01-28 20:14:00,71.2,59.6,29.96,West,279,6.0,21.0,67,0.00,,,0.07,Weather View 32 v70,2013-01-29 06:14:00,
2013-01-28 20:19:00,71.1,58.7,29.96,SW,224,7.0,21.0,65,0.00,,,0.07,Weather View 32 v70,2013-01-29 06:19:00,
2013-01-28 20:24:00,71.3,57.6,29.97,West,262,11.0,21.0,62,0.00,,,0.07,Weather View 32 v70,2013-01-29 06:24:00,
2013-01-28 20:29:00,71.6,56.9,29.97,WSW,237,9.0,21.0,60,0.00,,,0.07,Weather View 32 v70,2013-01-29 06:29:00,
2013-01-28 20:34:00,71.9,56.3,29.96,WNW,284,8.0,21.0,58,0.00,,,0.07,Weather View 32 v70,2013-01-29 06:34:00,
2013-01-28 20:39:00,72.3,56.2,29.96,SW,224,6.0,18.0,57,0.00,,,0.07,Weather View 32 v70,2013-01-29 06:39:00,
2013-01-28 20:44:00,72.5,55.9,29.97,SW,230,9.0,18.0,56,0.00,,,0.07,Weather View 32 v70,2013-01-29 06:44:00,
2013-01-28 20:49:00,72.6,56.0,29.97,WSW,237,4.0,18.0,56,0.00,,,0.07,Weather View 32 v70,2013-01-29 06:49:00,
2013-01-28 20:54:00,72.7,56.0,29.97,SW,233,18.0,18.0,56,0.00,,,0.07,Weather View 32 v70,2013-01-29 06:54:00,
2013-01-28 20:59:00,72.7,55.5,29.97,WSW,238,8.0,18.0,55,0.00,,,0.07,Weather View 32 v70,2013-01-29 06:59:00,
2013-01-28 21:04:00,72.8,55.6,29.97,SW,230,18.0,18.0,55,0.00,,,0.07,Weather View 32 v70,2013-01-29 07:04:00,
2013-01-28 21:09:00,72.7,56.0,29.97,WSW,243,9.0,22.0,56,0.00,,,0.07,Weather View 32 v70,2013-01-29 07:09:00,
2013-01-28 21:14:00,72.7,55.5,29.97,West,264,1.0,22.0,55,0.00,,,0.07,Weather View 32 v70,2013-01-29 07:14:00,
2013-01-28 21:19:00,72.6,56.0,29.97,SW,214,8.0,22.0,56,0.00,,,0.07,Weather View 32 v70,2013-01-29 07:19:00,
2013-01-28 21:24:00,72.6,56.0,29.97,SW,224,6.0,22.0,56,0.00,,,0.07,Weather View 32 v70,2013-01-29 07:24:00,
2013-01-28 21:29:00,72.5,55.9,29.97,South,191,11.0,22.0,56,0.00,,,0.07,Weather View 32 v70,2013-01-29 07:29:00,
2013-01-28 21:34:00,72.6,56.0,29.97,SW,222,10.0,22.0,56,0.00,,,0.07,Weather View 32 v70,2013-01-29 07:34:00,
2013-01-28 21:39:00,72.6,56.0,29.98,WSW,247,9.0,22.0,56,0.00,,,0.07,Weather View 32 v70,2013-01-29 07:39:00,
2013-01-28 21:44:00,72.6,55.5,29.97,West,270,5.0,22.0,55,0.00,,,0.07,Weather View 32 v70,2013-01-29 07:44:00,
2013-01-28 21:49:00,72.6,55.5,29.98,SSW,206,7.0,22.0,55,0.00,,,0.07,Weather View 32 v70,2013-01-29 07:49:00,
2013-01-28 21:54:00,72.3,58.1,29.98,South,183,0.0,22.0,61,0.00,,,0.07,Weather View 32 v70,2013-01-29 07:54:00,
2013-01-28 21:59:00,71.8,59.8,29.98,ESE,123,2.0,22.0,66,0.00,,,0.07,Weather View 32 v70,2013-01-29 07:59:00,
2013-01-28 22:04:00,71.3,61.0,29.98,NE,42,1.0,22.0,70,0.00,,,0.07,Weather View 32 v70,2013-01-29 08:04:00,
2013-01-28 22:09:00,70.8,61.3,29.98,NE,41,1.0,16.0,72,0.00,,,0.07,Weather View 32 v70,2013-01-29 08:09:00,
2013-01-28 22:14:00,70.6,61.9,29.98,NE,42,3.0,16.0,74,0.00,,,0.07,Weather View 32 v70,2013-01-29 08:14:00,
2013-01-28 22:19:00,70.3,62.3,29.98,NE,41,0.0,16.0,76,0.00,,,0.07,Weather View 32 v70,2013-01-29 08:19:00,
2013-01-28 22:24:00,69.8,62.2,29.98,NE,41,0.0,16.0,77,0.00,,,0.07,Weather View 32 v70,2013-01-29 08:24:00,
2013-01-28 22:29:00,69.6,62.4,29.98,NE,41,0.0,16.0,78,0.00,,,0.07,Weather View 32 v70,2013-01-29 08:29:00,
2013-01-28 22:34:00,69.5,62.7,29.98,NE,41,0.0,15.0,79,0.00,,,0.07,Weather View 32 v70,2013-01-29 08:34:00,
2013-01-28 22:39:00,69.3,63.2,29.98,South,185,0.0,15.0,81,0.00,,,0.07,Weather View 32 v70,2013-01-29 08:39:00,
2013-01-28 22:44:00,69.3,63.5,29.98,South,184,0.0,11.0,82,0.00,,,0.07,Weather View 32 v70,2013-01-29 08:44:00,
2013-01-28 22:49:00,69.0,63.3,29.98,South,183,0.0,11.0,82,0.00,,,0.07,Weather View 32 v70,2013-01-29 08:49:00,
2013-01-28 22:54:00,68.8,63.4,29.98,South,183,0.0,9.0,83,0.00,,,0.07,Weather View 32 v70,2013-01-29 08:54:00,
2013-01-28 22:59:00,68.9,64.2,29.98,South,185,0.0,4.0,85,0.00,,,0.07,Weather View 32 v70,2013-01-29 08:59:00,
2013-01-28 23:04:00,68.8,64.1,29.98,South,184,0.0,4.0,85,0.00,,,0.07,Weather View 32 v70,2013-01-29 09:04:00,
2013-01-28 23:09:00,68.5,63.1,29.98,South,183,1.0,4.0,83,0.00,,,0.07,Weather View 32 v70,2013-01-29 09:09:00,
2013-01-28 23:14:00,68.0,62.6,29.98,SSW,199,2.0,5.0,83,0.00,,,0.07,Weather View 32 v70,2013-01-29 09:14:00,
2013-01-28 23:19:00,68.1,62.0,29.97,SW,214,5.0,5.0,81,0.00,,,0.07,Weather View 32 v70,2013-01-29 09:19:00,
2013-01-28 23:24:00,68.6,62.2,29.97,SW,218,7.0,9.0,80,0.00,,,0.07,Weather View 32 v70,2013-01-29 09:24:00,
2013-01-28 23:29:00,69.1,62.3,29.97,SW,228,4.0,9.0,79,0.00,,,0.07,Weather View 32 v70,2013-01-29 09:29:00,
2013-01-28 23:34:00,69.4,62.9,29.97,WSW,244,7.0,9.0,80,0.00,,,0.07,Weather View 32 v70,2013-01-29 09:34:00,
2013-01-28 23:39:00,69.5,63.0,29.97,SW,229,2.0,11.0,80,0.00,,,0.07,Weather View 32 v70,2013-01-29 09:39:00,
2013-01-28 23:44:00,69.5,63.0,29.97,WSW,254,3.0,11.0,80,0.00,,,0.07,Weather View 32 v70,2013-01-29 09:44:00,
2013-01-28 23:49:00,69.5,63.0,29.97,WNW,282,4.0,11.0,80,0.00,,,0.07,Weather View 32 v70,2013-01-29 09:49:00,
2013-01-28 23:54:00,69.4,62.6,29.97,SW,231,6.0,11.0,79,0.00,,,0.07,Weather View 32 v70,2013-01-29 09:54:00,
2013-01-28 23:59:00,69.5,62.7,29.97,SW,231,5.0,11.0,79,-0.07,,,0.00,Weather View 32 v70,2013-01-29 09:59:00,